AirNav   Everest Fuels
 
 1040 users online  

10C Galt Field Airport
Greenwood/Wonder Lake, Illinois, USA

GOING TO GREENWOOD/WONDER LAKE?


FAA INFORMATION EFFECTIVE 05 DECEMBER 2019

Location

FAA Identifier: 10C
Lat/Long: 42-24-10.4000N 088-22-30.4000W
42-24.173333N 088-22.506667W
42.4028889,-88.3751111
(estimated)
Elevation: 875 ft. / 266.7 m (surveyed)
Variation: 02W (2000)
From city: 1 mile N of central business district of the associated city
Time zone: UTC -6 (UTC -5 during Daylight Saving Time)
Zip code: 60098

Airport Operations

Airport use: Open to the public
Activation date: 09/1958
Control tower: no
ARTCC: CHICAGO CENTER
FSS: KANKAKEE FLIGHT SERVICE STATION
NOTAMs facility: IKK (NOTAM-D service available)
Attendance: 0800-1700
Pattern altitude: 1675 ft. MSL
Wind indicator: lighted
Segmented circle: no
Beacon: white-green (lighted land airport)
Operates sunset to sunrise.

Airport Communications

CTAF/UNICOM: 122.8
CHICAGO APPROACH: 120.55
CHICAGO DEPARTURE: 120.55
WX AWOS-3 at BUU (18 nm N): 125.275 (262-757-0907)

Nearby radio navigation aids

VOR radial/distance  VOR name  Freq  Var
OBKr302/21.7NORTHBROOK VOR/DME113.0002W
DPAr356/30.8DUPAGE VOR/DME108.4002E
JVLr103/33.6JANESVILLE VOR/DME114.3003E
RFDr073/38.1ROCKFORD VOR/DME110.8001E

 
NDB name  Hdg/Dist  Freq  Var  ID
LAKE LAWN154/20.240402WLVV .-.. ...- ...-

Airport Services

Fuel available: 100LL
Parking: hangars and tiedowns
Airframe service: MAJOR
Powerplant service: MAJOR
Bottled oxygen: NONE
Bulk oxygen: NONE

Runway Information

Runway 9/27

Dimensions: 2802 x 36 ft. / 854 x 11 m
Surface: asphalt, in fair condition
Runway edge lights: non-standard
RY 09/27 NSTD LIRL WITH NSTD SPACING; 2669 FT LGTD AT NIGHT.
RUNWAY 9  RUNWAY 27
Latitude: 42-24.104972N42-24.119943N
Longitude: 088-22.882282W088-22.260242W
Elevation: 873.9 ft.847.9 ft.
Traffic pattern: leftleft
Runway heading: 090 magnetic, 088 true270 magnetic, 268 true
Markings: nonprecision, in good conditionnonprecision, in good condition
Runway end identifier lights: nono
Touchdown point: yes, no lightsno, no lights
Obstructions: none
CLEAR 20:1 TO RWY 09 THRESHOLD
74 ft. tree, 1528 ft. from runway, 113 ft. right of centerline, 18:1 slope to clear

Runway 18/36

Dimensions: 2141 x 125 ft. / 653 x 38 m
Surface: turf, in fair condition
RUNWAY 18  RUNWAY 36
Latitude: 42-24.428267N42-24.076072N
Longitude: 088-22.432450W088-22.414980W
Elevation: 866.9 ft.854.6 ft.
Traffic pattern: leftleft
Runway heading: 180 magnetic, 178 true000 magnetic, 358 true
Displaced threshold: 213 ft.149 ft.
Markings: nonenone
Runway end identifier lights: nono
Touchdown point: yes, no lightsyes, no lights

Airport Ownership and Management from official FAA records

Ownership: Privately-owned
Owner: FLAGSHIP PHOENIX, INC
5112 GREENWOOD ROAD
WONDER LAKE, IL 60097
Phone 815-648-2433
OWNERS ARE CLAUDE & DIANE SONDAY; PHONE 847-542-1148
Manager: JUSTIN CLELAND
5112 GREENWOOD ROAD
GREENWOOD, IL 60097
Phone 815-648-2433
EMAIL ADDRESS: JUSTIN@GALTAIRPORT.COM (ALL LOWER CASE)

Airport Operational Statistics

Aircraft based on the field: 48
Single engine airplanes: 40
Multi engine airplanes: 2
Ultralights: 6
    
Aircraft operations: avg 110/day *
62% transient general aviation
38% local general aviation
* for 12-month period ending 31 July 2017

Additional Remarks

DEER ON & INVOF ARPT.
FOR CD CTC CHICAGO APCH AT 847-289-0926.
100LL SELF SERVE FUEL AVAILABLE 24 HR WITH CREDIT CARD

Instrument Procedures

NOTE: All procedures below are presented as PDF files. If you need a reader for these files, you should download the free Adobe Reader.

NOT FOR NAVIGATION. Please procure official charts for flight.
FAA instrument procedures published for use from 05 December 2019 at 0900Z to 02 January 2020 at 0900Z.

 
IAPs - Instrument Approach Procedures
RNAV (GPS)-B   download (145KB)
NOTE: Special Take-Off Minimums/Departure Procedures apply   download (201KB)

Other nearby airports with instrument procedures:

3CK - Lake in the Hills Airport (12 nm S)
C02 - Grand Geneva Resort Airport (13 nm N)
C81 - Campbell Airport (14 nm E)
KBUU - Burlington Municipal Airport (18 nm N)
C77 - Poplar Grove Airport (21 nm W)
 
Loc | Ops | Rwys | IFR | FBO | Links
Com | Nav | Svcs | Stats | Notes
Area around 10C (Galt Field Airport)
 
Road maps at: MapQuest Bing Google
 
Aerial photo
WARNING: Photo may not be current or correct
Aerial photo of 10C (Galt Field Airport)
Photo by Wayne Hunter
Photo taken 12-Jun-2015
looking east.

Do you have a better or more recent aerial photo of Galt Field Airport that you would like to share? If so, please send us your photo.

 
Sectional chart

 
Airport distance calculator
Flying to Galt Field Airport? Find the distance to fly.

From to 10C

Sunrise and sunset
Times for 12-Dec-2019
 Local
(UTC-6)
 Zulu
(UTC)
Morning civil twilight06:4312:43
Sunrise07:1513:15
Sunset16:2022:20
Evening civil twilight16:5222:52

Current date and time
Zulu (UTC)  12-Dec-2019 22:08:18
Local (UTC-6)  12-Dec-2019 16:08:18
 
METAR
KBUU 
17nm N 
122155Z AUTO 21011G19KT 10SM OVC041 04/M02 A3002 RMK AO2 T00441021
KUGN 
23nm E 
122155Z 21014G22KT 10SM OVC050 07/M03 A3004 RMK AO2 PK WND 20027/2058 SLP185 T00671033
KENW 
23nm NE 
122153Z 22014G25KT 10SM OVC046 08/M02 A3004 RMK AO2 SLP180 T00781022
K57C 
24nm N 
122155Z AUTO 20010G14KT 10SM OVC038 04/M02 A3001 RMK AO2 T00351017
KPWK 
27nm SE 
122152Z 20015G22KT 10SM FEW065 OVC090 08/M03 A3007 RMK AO2 PK WND 21026/2053 SLP189 T00781033
K06C 
28nm SE 
122155Z AUTO 21013G18KT 10SM BKN065 OVC085 07/M01 A3005 RMK AO2 T00651015
KDPA 
30nm S 
122152Z 19012G23KT 10SM BKN065 BKN075 OVC090 06/M02 A3005 RMK AO2 SLP183 T00611017
KJVL 
31nm NW 
122145Z 21010G15KT 10SM OVC037 05/M02 A3000
KDKB 
32nm SW 
122155Z AUTO 19011KT 10SM OVC042 05/00 A3005 RMK AO2 T00451003
KORD 
32nm SE 
122151Z 19012G21KT 10SM OVC090 07/M03 A3006 RMK AO2 PK WND 21027/2057 SLP184 T00671028
TAF
KENW 
23nm NE 
121722Z 1218/1318 19012G24KT P6SM FEW045 OVC100 WS020/22045KT FM122000 21014G26KT P6SM VCSH OVC050 FM130000 22010KT P6SM OVC040 FM130900 VRB03KT P6SM SCT015 OVC028 FM131500 VRB03KT P6SM SCT009 OVC016
NOTAMs
Click for the latest NOTAMs
NOTAMs are issued by the DoD/FAA and will open in a separate window not controlled by AirNav.

 

 
 

FBO, Fuel Providers, and Aircraft Ground Support

  
 Business Name 
 
 Contact 
 
 Services / Description 
 
Fuel Prices
 
Comments
  
 JB Aviation
815-648-2433
[web site]
[email]
Aviation fuel, Aircraft parking (ramp or tiedown), Hangars, Hangar leasing / sales, GPU / Power cart, Passenger terminal and lounge, Flight training, ...

More info about JB Aviation
Phillips 66
100LL
SS $4.29 
 Updated 06-Dec-2019
 
   2 read write
SS=Self service
Update Fuel Prices
 

Would you like to see your business listed on this page?

 If your business provides an interesting product or service to pilots, flight crews, aircraft, or users of the Galt Field Airport, you should consider listing it here.  To start the listing process, click on the button below
 
Add a business
 

Other Pages about Galt Field Airport

Update a link
 
Copyright © AirNav, LLC. All rights reserved. Privacy Policy  Contact